LAN1498 UUEE-UMMS

Flight info

Callsign LAN1498
Flight time 1h 13m
Altitude 36000
Route LIDRI3F LIDRI T781 REPNU N858 VEPIS T526 RUHAL RUHAL2E
Aircraft A320/M-SDE3FGHIRWY/LB1

Departure

Time 2026-05-07 02:31
Airport Sheremetyevo International Airport (UUEE)

Arrival

Time 2026-05-07 03:44
Airport Minsk National Airport (UMMS)
Time Latitude Longitude Altitude Speed Heading
2026-05-07 02:22 55.96541 37.40586 639 ft 0 kts 255°
2026-05-07 02:24 55.96541 37.40588 639 ft 2 kts 255°
2026-05-07 02:24 55.96545 37.40611 642 ft 2 kts 255°
2026-05-07 02:24 55.96548 37.40634 640 ft 2 kts 255°
2026-05-07 02:25 55.96551 37.40658 640 ft 2 kts 255°
2026-05-07 02:25 55.96555 37.40681 645 ft 2 kts 257°
2026-05-07 02:25 55.96558 37.40705 643 ft 2 kts 260°
2026-05-07 02:25 55.96560 37.40727 641 ft 2 kts 270°
2026-05-07 02:26 55.96560 37.40744 640 ft 1 kts 303°
2026-05-07 02:26 55.96557 37.40752 640 ft 1 kts 324°
2026-05-07 02:26 55.96553 37.40758 641 ft 1 kts 346°
2026-05-07 02:26 55.96551 37.40759 647 ft 1 kts 343°
2026-05-07 02:27 55.96581 37.40743 640 ft 8 kts 344°
2026-05-07 02:27 55.96659 37.40709 641 ft 13 kts 347°
2026-05-07 02:27 55.96744 37.40674 639 ft 14 kts 347°
2026-05-07 02:27 55.96786 37.40516 639 ft 19 kts 256°
2026-05-07 02:28 55.96747 37.40262 641 ft 24 kts 256°
2026-05-07 02:28 55.96703 37.39963 642 ft 25 kts 255°
2026-05-07 02:28 55.96655 37.39653 639 ft 26 kts 256°
2026-05-07 02:28 55.96609 37.39332 647 ft 27 kts 255°
2026-05-07 02:29 55.96563 37.39013 642 ft 20 kts 255°
2026-05-07 02:29 55.96547 37.38879 639 ft 9 kts 268°
2026-05-07 02:29 55.96565 37.38782 643 ft 9 kts 307°
2026-05-07 02:29 55.96626 37.38723 639 ft 12 kts 340°
2026-05-07 02:30 55.96713 37.38713 639 ft 13 kts 32°
2026-05-07 02:30 55.96750 37.38867 638 ft 17 kts 76°
2026-05-07 02:30 55.96823 37.39355 637 ft 74 kts 75°
2026-05-07 02:30 55.97009 37.40602 644 ft 131 kts 75°
2026-05-07 02:31 55.97291 37.42423 745 ft 163 kts 73°
2026-05-07 02:31 55.97576 37.44292 1489 ft 158 kts 82°
2026-05-07 02:31 55.97761 37.46285 1951 ft 167 kts 100°
2026-05-07 02:31 55.97699 37.48464 2284 ft 186 kts 100°
2026-05-07 02:32 55.97695 37.50870 2575 ft 209 kts 97°
2026-05-07 02:32 55.97746 37.53658 2808 ft 240 kts 94°
2026-05-07 02:32 55.97861 37.56758 3149 ft 266 kts 92°
2026-05-07 02:32 55.97930 37.60142 3865 ft 272 kts 95°
2026-05-07 02:33 55.97921 37.63613 4066 ft 282 kts 95°
2026-05-07 02:33 55.98079 37.67097 4062 ft 287 kts 76°
2026-05-07 02:33 55.99151 37.70046 3970 ft 293 kts 40°
2026-05-07 02:33 56.00914 37.71840 3939 ft 294 kts 21°
2026-05-07 02:34 56.02874 37.72995 3986 ft 297 kts 15°
2026-05-07 02:34 56.04884 37.73734 3994 ft 294 kts 357°
2026-05-07 02:34 56.06865 37.73102 4001 ft 289 kts 334°
2026-05-07 02:34 56.08580 37.71292 4306 ft 287 kts 312°
2026-05-07 02:35 56.09858 37.68656 5320 ft 278 kts 301°
2026-05-07 02:35 56.11002 37.65893 5749 ft 272 kts 296°
2026-05-07 02:35 56.11750 37.62870 5943 ft 263 kts 279°
2026-05-07 02:35 56.11936 37.59662 6134 ft 259 kts 262°
2026-05-07 02:36 56.11601 37.56506 6785 ft 259 kts 251°
2026-05-07 02:36 56.11045 37.53450 6945 ft 256 kts 250°
2026-05-07 02:36 56.10488 37.50477 6987 ft 255 kts 250°
2026-05-07 02:36 56.09921 37.47480 7004 ft 254 kts 250°
2026-05-07 02:37 56.09343 37.44445 7001 ft 255 kts 250°
2026-05-07 02:37 56.08776 37.41480 6980 ft 256 kts 250°
2026-05-07 02:37 56.08200 37.38465 6980 ft 256 kts 250°
2026-05-07 02:37 56.07623 37.35448 6983 ft 256 kts 250°
2026-05-07 02:38 56.07043 37.32423 7017 ft 258 kts 250°
2026-05-07 02:38 56.06422 37.29388 7786 ft 260 kts 249°
2026-05-07 02:38 56.05781 37.26364 8680 ft 261 kts 250°
2026-05-07 02:38 56.05126 37.23309 9524 ft 264 kts 250°
2026-05-07 02:39 56.04464 37.20216 10302 ft 267 kts 250°
2026-05-07 02:39 56.03804 37.17122 11062 ft 269 kts 250°
2026-05-07 02:39 56.03134 37.13984 11830 ft 272 kts 250°
2026-05-07 02:39 56.02500 37.10788 12598 ft 274 kts 255°
2026-05-07 02:40 56.02051 37.07467 13345 ft 276 kts 256°
2026-05-07 02:40 56.01601 37.04104 14026 ft 280 kts 256°
2026-05-07 02:40 56.01148 37.00709 14677 ft 282 kts 256°
2026-05-07 02:40 56.00687 36.97273 15330 ft 285 kts 256°
2026-05-07 02:41 56.00218 36.93817 15973 ft 288 kts 256°
2026-05-07 02:41 55.99750 36.90366 16615 ft 291 kts 256°
2026-05-07 02:41 55.99272 36.86839 17239 ft 293 kts 256°
2026-05-07 02:41 55.98790 36.83283 17884 ft 296 kts 256°
2026-05-07 02:42 55.98187 36.79702 18469 ft 300 kts 247°
2026-05-07 02:42 55.97181 36.76321 18637 ft 317 kts 241°
2026-05-07 02:42 55.96049 36.72892 18756 ft 333 kts 240°
2026-05-07 02:42 55.94846 36.69257 18876 ft 349 kts 240°
2026-05-07 02:43 55.93583 36.65443 19004 ft 363 kts 240°
2026-05-07 02:43 55.92274 36.61488 19121 ft 377 kts 240°
2026-05-07 02:43 55.90930 36.57432 19241 ft 389 kts 240°
2026-05-07 02:43 55.89531 36.53220 19362 ft 400 kts 240°
2026-05-07 02:44 55.88097 36.48900 19546 ft 408 kts 241°
2026-05-07 02:44 55.86900 36.44304 19869 ft 411 kts 251°
2026-05-07 02:44 55.86196 36.39374 20216 ft 413 kts 257°
2026-05-07 02:44 55.85588 36.34353 20581 ft 416 kts 257°
2026-05-07 02:45 55.84977 36.29340 20923 ft 418 kts 257°
2026-05-07 02:45 55.84354 36.24283 21287 ft 420 kts 257°
2026-05-07 02:45 55.83721 36.19195 21643 ft 422 kts 257°
2026-05-07 02:45 55.83080 36.14076 21980 ft 425 kts 257°
2026-05-07 02:46 55.82435 36.08940 22337 ft 427 kts 257°
2026-05-07 02:46 55.81786 36.03785 22686 ft 428 kts 257°
2026-05-07 02:46 55.81136 35.98590 23024 ft 430 kts 257°
2026-05-07 02:46 55.80491 35.93467 23347 ft 432 kts 257°
2026-05-07 02:47 55.79824 35.88240 23620 ft 434 kts 257°
2026-05-07 02:47 55.79152 35.83015 23881 ft 436 kts 257°
2026-05-07 02:47 55.78471 35.77743 24144 ft 437 kts 257°
2026-05-07 02:47 55.77787 35.72460 24388 ft 439 kts 257°
2026-05-07 02:48 55.77099 35.67167 24698 ft 439 kts 257°
2026-05-07 02:48 55.76411 35.61894 25080 ft 438 kts 256°
2026-05-07 02:48 55.75723 35.56629 25403 ft 438 kts 257°
2026-05-07 02:48 55.75265 35.51288 25752 ft 438 kts 265°
2026-05-07 02:49 55.75042 35.45907 26107 ft 438 kts 265°
2026-05-07 02:49 55.74814 35.40519 26469 ft 437 kts 265°
2026-05-07 02:49 55.74582 35.35153 26843 ft 436 kts 264°
2026-05-07 02:49 55.74344 35.29789 27227 ft 435 kts 264°
2026-05-07 02:50 55.74107 35.24449 27615 ft 434 kts 264°
2026-05-07 02:50 55.73865 35.19097 28008 ft 434 kts 264°
2026-05-07 02:50 55.73618 35.13787 28405 ft 433 kts 264°
2026-05-07 02:50 55.73370 35.08484 28794 ft 432 kts 264°
2026-05-07 02:51 55.73125 35.03184 29187 ft 431 kts 264°
2026-05-07 02:51 55.72881 34.97891 29570 ft 430 kts 264°
2026-05-07 02:51 55.72637 34.92597 29961 ft 430 kts 264°
2026-05-07 02:51 55.72392 34.87333 30292 ft 429 kts 264°
2026-05-07 02:52 55.72147 34.82065 30632 ft 428 kts 264°
2026-05-07 02:52 55.71899 34.76819 30970 ft 427 kts 264°
2026-05-07 02:52 55.71646 34.71574 31268 ft 426 kts 264°
2026-05-07 02:52 55.71391 34.66347 31580 ft 426 kts 264°
2026-05-07 02:53 55.71103 34.61116 31912 ft 424 kts 260°
2026-05-07 02:53 55.70455 34.56031 32238 ft 423 kts 252°
2026-05-07 02:53 55.69478 34.51158 32588 ft 422 kts 250°
2026-05-07 02:53 55.68477 34.46300 32995 ft 418 kts 250°
2026-05-07 02:54 55.67478 34.41463 33377 ft 416 kts 250°
2026-05-07 02:54 55.66484 34.36666 33738 ft 415 kts 250°
2026-05-07 02:54 55.65487 34.31869 34036 ft 414 kts 250°
2026-05-07 02:54 55.64494 34.27087 34315 ft 413 kts 250°
2026-05-07 02:55 55.63499 34.22303 34584 ft 413 kts 250°
2026-05-07 02:55 55.62523 34.17614 34844 ft 412 kts 250°
2026-05-07 02:55 55.61531 34.12865 35089 ft 412 kts 250°
2026-05-07 02:55 55.60535 34.08116 35308 ft 412 kts 249°
2026-05-07 02:56 55.59537 34.03361 35503 ft 412 kts 249°
2026-05-07 02:56 55.58537 33.98602 35737 ft 412 kts 249°
2026-05-07 02:56 55.56855 33.90614 35859 ft 417 kts 249°
2026-05-07 02:57 55.54820 33.81031 35857 ft 420 kts 249°
2026-05-07 02:57 55.52757 33.71385 35851 ft 420 kts 249°
2026-05-07 02:58 55.50844 33.61640 35852 ft 421 kts 255°
2026-05-07 02:58 55.49411 33.51658 35840 ft 416 kts 255°
2026-05-07 02:59 55.47999 33.41899 35828 ft 405 kts 255°
2026-05-07 02:59 55.46608 33.32397 35846 ft 395 kts 255°
2026-05-07 03:00 55.45230 33.23016 35850 ft 401 kts 255°
2026-05-07 03:00 55.43805 33.13370 35853 ft 412 kts 255°
2026-05-07 03:01 55.42337 33.03525 35843 ft 419 kts 255°
2026-05-07 03:01 55.40850 32.93603 35846 ft 420 kts 255°
2026-05-07 03:02 55.39350 32.83671 35846 ft 420 kts 255°
2026-05-07 03:02 55.37849 32.73768 35847 ft 421 kts 255°
2026-05-07 03:03 55.36332 32.63818 35859 ft 420 kts 254°
2026-05-07 03:03 55.34818 32.53972 35857 ft 420 kts 254°
2026-05-07 03:04 55.33290 32.44096 35854 ft 419 kts 254°
2026-05-07 03:04 55.31753 32.34213 35851 ft 419 kts 254°
2026-05-07 03:05 55.30208 32.24355 35850 ft 419 kts 254°
2026-05-07 03:05 55.28658 32.14483 35849 ft 419 kts 254°
2026-05-07 03:06 55.27108 32.04630 35834 ft 419 kts 254°
2026-05-07 03:06 55.25538 31.94802 35834 ft 419 kts 253°
2026-05-07 03:07 55.23961 31.84956 35863 ft 419 kts 253°
2026-05-07 03:07 55.22383 31.75118 35861 ft 419 kts 253°
2026-05-07 03:08 55.20796 31.65323 35855 ft 418 kts 253°
2026-05-07 03:08 55.19199 31.55536 35855 ft 418 kts 253°
2026-05-07 03:09 55.17599 31.45756 35837 ft 418 kts 253°
2026-05-07 03:09 55.16000 31.36062 35834 ft 418 kts 253°
2026-05-07 03:10 55.14363 31.26223 35836 ft 419 kts 253°
2026-05-07 03:10 55.12736 31.16458 35838 ft 419 kts 253°
2026-05-07 03:11 55.11107 31.06742 35872 ft 419 kts 253°
2026-05-07 03:11 55.08785 30.97472 35870 ft 418 kts 237°
2026-05-07 03:12 55.05059 30.89744 35866 ft 418 kts 229°
2026-05-07 03:12 55.01136 30.82256 35843 ft 418 kts 229°
2026-05-07 03:13 54.97211 30.74757 35844 ft 419 kts 229°
2026-05-07 03:13 54.93278 30.67266 35841 ft 419 kts 229°
2026-05-07 03:14 54.89344 30.59793 35850 ft 419 kts 229°
2026-05-07 03:15 54.83455 30.48637 35851 ft 419 kts 229°
2026-05-07 03:15 54.79499 30.41200 35854 ft 420 kts 229°
2026-05-07 03:16 54.75548 30.33801 35857 ft 420 kts 229°
2026-05-07 03:16 54.71586 30.26382 35857 ft 420 kts 229°
2026-05-07 03:17 54.67621 30.18984 35613 ft 420 kts 229°
2026-05-07 03:17 54.65626 30.15270 34803 ft 423 kts 229°
2026-05-07 03:17 54.63621 30.11540 33990 ft 425 kts 228°
2026-05-07 03:17 54.61604 30.07796 33044 ft 428 kts 229°
2026-05-07 03:18 54.59569 30.04029 32194 ft 428 kts 229°
2026-05-07 03:18 54.57536 30.00274 31250 ft 431 kts 229°
2026-05-07 03:18 54.55491 29.96498 30377 ft 432 kts 229°
2026-05-07 03:18 54.53428 29.92693 29303 ft 435 kts 229°
2026-05-07 03:19 54.51362 29.88891 28242 ft 437 kts 229°
2026-05-07 03:19 54.49279 29.85070 27235 ft 437 kts 229°
2026-05-07 03:19 54.47198 29.81254 26110 ft 440 kts 229°
2026-05-07 03:19 54.45089 29.77387 24939 ft 443 kts 228°
2026-05-07 03:20 54.42977 29.73515 23816 ft 446 kts 228°
2026-05-07 03:20 54.40850 29.69624 22734 ft 446 kts 228°
2026-05-07 03:20 54.38731 29.65764 21916 ft 439 kts 227°
2026-05-07 03:20 54.36675 29.62027 21110 ft 433 kts 227°
2026-05-07 03:21 54.34622 29.58296 20274 ft 429 kts 227°
2026-05-07 03:21 54.32602 29.54608 19448 ft 426 kts 227°
2026-05-07 03:21 54.30566 29.50883 18734 ft 420 kts 227°
2026-05-07 03:21 54.28599 29.47284 17989 ft 416 kts 227°
2026-05-07 03:22 54.26611 29.43659 17261 ft 409 kts 227°
2026-05-07 03:22 54.24712 29.40205 16322 ft 397 kts 227°
2026-05-07 03:22 54.22868 29.36854 15634 ft 377 kts 227°
2026-05-07 03:22 54.21104 29.33655 14979 ft 366 kts 228°
2026-05-07 03:23 54.19363 29.30499 14355 ft 364 kts 228°
2026-05-07 03:23 54.17630 29.27369 13763 ft 363 kts 228°
2026-05-07 03:23 54.15900 29.24248 13111 ft 361 kts 228°
2026-05-07 03:23 54.14214 29.21114 12518 ft 356 kts 232°
2026-05-07 03:24 54.12830 29.17669 11940 ft 350 kts 240°
2026-05-07 03:24 54.11773 29.13941 11367 ft 346 kts 245°
2026-05-07 03:24 54.10787 29.10283 11135 ft 332 kts 244°
2026-05-07 03:24 54.09839 29.06792 11020 ft 317 kts 244°
2026-05-07 03:25 54.08934 29.03464 10893 ft 302 kts 244°
2026-05-07 03:25 54.08066 29.00276 10759 ft 290 kts 244°
2026-05-07 03:25 54.07235 28.97228 10638 ft 278 kts 244°
2026-05-07 03:25 54.06444 28.94336 10512 ft 268 kts 244°
2026-05-07 03:26 54.05662 28.91476 10310 ft 261 kts 243°
2026-05-07 03:26 54.04901 28.88698 10070 ft 257 kts 243°
2026-05-07 03:26 54.04160 28.85997 9829 ft 254 kts 243°
2026-05-07 03:26 54.03412 28.83280 9695 ft 253 kts 243°
2026-05-07 03:27 54.02665 28.80567 9560 ft 253 kts 243°
2026-05-07 03:27 54.01916 28.77852 9434 ft 253 kts 243°
2026-05-07 03:27 54.01166 28.75140 9300 ft 254 kts 243°
2026-05-07 03:27 54.00415 28.72425 9167 ft 254 kts 243°
2026-05-07 03:28 53.99664 28.69712 8987 ft 254 kts 243°
2026-05-07 03:28 53.98913 28.66999 8688 ft 253 kts 243°
2026-05-07 03:28 53.98164 28.64297 8374 ft 253 kts 243°
2026-05-07 03:28 53.97415 28.61596 8057 ft 253 kts 243°
2026-05-07 03:29 53.96664 28.58888 7738 ft 253 kts 243°
2026-05-07 03:29 53.95915 28.56192 7417 ft 253 kts 243°
2026-05-07 03:29 53.95161 28.53487 7092 ft 253 kts 243°
2026-05-07 03:29 53.94413 28.50806 6783 ft 253 kts 244°
2026-05-07 03:30 53.93656 28.48094 6457 ft 255 kts 243°
2026-05-07 03:30 53.92880 28.45407 6139 ft 255 kts 238°
2026-05-07 03:30 53.91812 28.43012 5808 ft 254 kts 229°
2026-05-07 03:30 53.90648 28.40755 5569 ft 252 kts 229°
2026-05-07 03:31 53.89525 28.38562 5447 ft 240 kts 229°
2026-05-07 03:31 53.88363 28.36645 5316 ft 229 kts 211°
2026-05-07 03:31 53.86853 28.35995 5185 ft 228 kts 178°
2026-05-07 03:31 53.85380 28.36971 5030 ft 235 kts 145°
2026-05-07 03:32 53.84126 28.38785 4799 ft 237 kts 142°
2026-05-07 03:32 53.82891 28.40629 4539 ft 236 kts 142°
2026-05-07 03:32 53.81678 28.42444 4269 ft 236 kts 142°
2026-05-07 03:32 53.80452 28.44269 4003 ft 235 kts 142°
2026-05-07 03:33 53.79226 28.46083 3895 ft 234 kts 142°
2026-05-07 03:33 53.78000 28.47891 3846 ft 234 kts 142°
2026-05-07 03:33 53.76771 28.49701 3794 ft 234 kts 142°
2026-05-07 03:33 53.75542 28.51513 3752 ft 234 kts 141°
2026-05-07 03:34 53.74314 28.53321 3695 ft 234 kts 142°
2026-05-07 03:34 53.73086 28.55125 3641 ft 234 kts 142°
2026-05-07 03:34 53.71800 28.56777 3582 ft 230 kts 159°
2026-05-07 03:34 53.70268 28.57196 3531 ft 224 kts 191°
2026-05-07 03:35 53.68866 28.56136 3491 ft 222 kts 223°
2026-05-07 03:35 53.67832 28.54204 3440 ft 223 kts 229°
2026-05-07 03:35 53.66815 28.52220 3392 ft 224 kts 229°
2026-05-07 03:35 53.65793 28.50235 3343 ft 224 kts 229°
2026-05-07 03:36 53.64772 28.48257 3267 ft 222 kts 229°
2026-05-07 03:36 53.63770 28.46313 3146 ft 216 kts 229°
2026-05-07 03:36 53.63086 28.44144 3042 ft 209 kts 260°
2026-05-07 03:36 53.63342 28.41816 2995 ft 205 kts 299°
2026-05-07 03:37 53.64363 28.40119 3008 ft 207 kts 317°
2026-05-07 03:37 53.65452 28.38572 3007 ft 206 kts 315°
2026-05-07 03:37 53.66525 28.36989 3003 ft 205 kts 315°
2026-05-07 03:37 53.67613 28.35482 2998 ft 206 kts 322°
2026-05-07 03:38 53.68809 28.34092 2998 ft 206 kts 322°
2026-05-07 03:38 53.69969 28.32741 3015 ft 202 kts 322°
2026-05-07 03:38 53.71074 28.31459 3012 ft 185 kts 322°
2026-05-07 03:38 53.72105 28.30264 2990 ft 170 kts 322°
2026-05-07 03:39 53.73038 28.29161 2990 ft 162 kts 317°
2026-05-07 03:39 53.73873 28.27923 2997 ft 159 kts 315°
2026-05-07 03:39 53.74697 28.26697 3001 ft 157 kts 315°
2026-05-07 03:39 53.75519 28.25478 3000 ft 157 kts 315°
2026-05-07 03:40 53.76341 28.24269 3021 ft 157 kts 316°
2026-05-07 03:40 53.77166 28.23063 3008 ft 157 kts 316°
2026-05-07 03:40 53.77990 28.21861 3003 ft 157 kts 316°
2026-05-07 03:40 53.78817 28.20655 3000 ft 156 kts 316°
2026-05-07 03:41 53.79623 28.19475 2916 ft 154 kts 316°
2026-05-07 03:41 53.80413 28.18309 2674 ft 149 kts 316°
2026-05-07 03:41 53.81190 28.17166 2466 ft 147 kts 316°
2026-05-07 03:41 53.81957 28.16036 2266 ft 145 kts 317°
2026-05-07 03:42 53.82714 28.14913 2072 ft 144 kts 317°
2026-05-07 03:42 53.83472 28.13792 1876 ft 144 kts 317°
2026-05-07 03:42 53.84227 28.12680 1692 ft 144 kts 317°
2026-05-07 03:42 53.84985 28.11569 1492 ft 143 kts 317°
2026-05-07 03:43 53.85732 28.10457 1307 ft 143 kts 318°
2026-05-07 03:43 53.86486 28.09355 1113 ft 143 kts 318°
2026-05-07 03:43 53.87220 28.08224 900 ft 142 kts 318°
2026-05-07 03:43 53.87954 28.07141 716 ft 141 kts 320°
2026-05-07 03:44 53.88674 28.06084 636 ft 120 kts 320°
2026-05-07 03:44 53.89071 28.05487 633 ft 36 kts 317°
2026-05-07 03:44 53.89240 28.05226 639 ft 31 kts 318°
2026-05-07 03:44 53.89403 28.04978 635 ft 32 kts 318°
2026-05-07 03:45 53.89576 28.04733 634 ft 33 kts 321°
2026-05-07 03:45 53.89712 28.04488 637 ft 27 kts 291°
2026-05-07 03:45 53.89778 28.04184 636 ft 25 kts 271°
2026-05-07 03:45 53.89677 28.04187 637 ft 18 kts 128°
2026-05-07 03:46 53.89580 28.04320 636 ft 18 kts 141°
2026-05-07 03:46 53.89513 28.04415 635 ft 20 kts 139°
2026-05-07 03:46 53.89407 28.04575 635 ft 21 kts 138°
2026-05-07 03:46 53.89292 28.04750 638 ft 23 kts 136°
2026-05-07 03:47 53.89188 28.04818 639 ft 14 kts 202°
2026-05-07 03:47 53.89117 28.04704 636 ft 14 kts 232°
2026-05-07 03:47 53.89053 28.04577 636 ft 16 kts 229°
2026-05-07 03:47 53.88975 28.04422 636 ft 19 kts 228°
2026-05-07 03:48 53.88879 28.04239 636 ft 22 kts 229°
2026-05-07 03:48 53.88820 28.04049 636 ft 14 kts 288°
2026-05-07 03:48 53.88867 28.03877 637 ft 18 kts 297°
2026-05-07 03:48 53.88919 28.03723 639 ft 13 kts 309°
2026-05-07 03:49 53.88965 28.03617 637 ft 0 kts 302°